User: anonymous   Login
Location: Caltech
(34.1382°N, 118.1253°W)
Time: 04:29:02
(UTC-07:00)
Language:

SEDSat Delta rocket - Orbit

View from above orbital plane
View from above orbital plane
View from above satellite
View from above satellite

Ground track
Ground track

The orbit data is extracted from the following two-line orbital elements,

1 25510U 98061C   15125.53048163  .00000568  00000-0  91413-4 0  9992
2 25510 031.4337 255.8634 0330366 062.7990 011.4217 14.36528004865955
Epoch (UTC): 05 May 2015 12:43:53
Eccentricity: 0.0330366
inclination: 31.4337°
perigee height: 534 km
apogee height: 1006 km
right ascension of ascending node: 255.8634°
argument of perigee: 62.7990°
revolutions per day: 14.36528004
mean anomaly at epoch: 11.4217°
orbit number at epoch: 86595

The dashed part of the orbit path shows where the satellite is in the earth's shadow,  

DLR